LRBO Weather Reports


Display with metric or nautical units.
time (UTC)temp
F
wind
direction
speed
MPH
gust
MPH
rain 1hr
in
rain 24hr
in
rain mn
in
humidity
%
barometer
mb
20260508043354 50 3.0 0.0 0.00 0.00 0.00 94 1016.0
20260508041849 50 3.0 0.0 0.00 0.00 0.00 94 1016.0
20260508040355 50 3.0 0.0 0.00 0.00 0.00 94 1016.0
20260508034849 48 2.0 0.0 0.00 0.00 0.00 94 1016.0
20260508033354 48 2.0 0.0 0.00 0.00 0.00 94 1016.0
20260508031851 48 2.0 0.0 0.00 0.00 0.00 94 1016.0
20260508030355 48 2.0 0.0 0.00 0.00 0.00 94 1016.0
20260508024854 0 0.0 0.0 0.00 0.00 0.00
20260508023355 0 0.0 0.0 0.00 0.00 0.00
20260508021855 0 0.0 0.0 0.00 0.00 0.00
20260508020354 0 0.0 0.0 0.00 0.00 0.00
20260508014851 0 0.0 0.0 0.00 0.00 0.00
20260508013354 0 0.0 0.0 0.00 0.00 0.00
20260508011854 0 0.0 0.0 0.00 0.00 0.00
20260508010353 0 0.0 0.0 0.00 0.00 0.00
20260508004854 0 0.0 0.0 0.00 0.00 0.00
20260508003354 0 0.0 0.0 0.00 0.00 0.00
20260508001850 0 0.0 0.0 0.00 0.00 0.00
20260508000354 0 0.0 0.0 0.00 0.00 0.00
20260507234851 0 0.0 0.0 0.00 0.00 0.00
20260507233353 0 0.0 0.0 0.00 0.00 0.00
20260507231850 0 0.0 0.0 0.00 0.00 0.00
20260507230353 0 0.0 0.0 0.00 0.00 0.00
20260507224854 0 0.0 0.0 0.00 0.00 0.00
20260507223516 0 0.0 0.0 0.00 0.00 0.00
20260507221851 0 0.0 0.0 0.00 0.00 0.00
20260507220353 0 0.0 0.0 0.00 0.00 0.00
20260507214853 54 140 3.0 0.0 0.00 0.00 0.00 94 1016.0
20260507213355 54 140 3.0 0.0 0.00 0.00 0.00 94 1016.0
20260507211854 54 140 3.0 0.0 0.00 0.00 0.00 94 1016.0
20260507210354 54 140 3.0 0.0 0.00 0.00 0.00 94 1016.0
20260507204854 54 140 3.0 0.0 0.00 0.00 0.00 94 1016.0
20260507203354 55 160 5.0 0.0 0.00 0.00 0.00 44 1016.0
20260507201851 55 160 5.0 0.0 0.00 0.00 0.00 44 1016.0
20260507200354 55 160 5.0 0.0 0.00 0.00 0.00 44 1016.0
20260507194859 57 130 7.0 0.0 0.00 0.00 0.00 82 1016.0
20260507193353 57 130 7.0 0.0 0.00 0.00 0.00 82 1016.0
20260507191850 57 130 7.0 0.0 0.00 0.00 0.00 82 1016.0
20260507190354 57 130 7.0 0.0 0.00 0.00 0.00 82 1016.0
20260507184856 63 130 9.0 0.0 0.00 0.00 0.00 73 1015.0
20260507183353 63 130 9.0 0.0 0.00 0.00 0.00 73 1015.0
20260507181854 63 130 9.0 0.0 0.00 0.00 0.00 73 1015.0
20260507180353 63 130 9.0 0.0 0.00 0.00 0.00 73 1015.0
20260507174853 66 140 11.0 0.0 0.00 0.00 0.00 64 1015.0
20260507173354 66 140 11.0 0.0 0.00 0.00 0.00 64 1015.0
20260507171854 66 140 11.0 0.0 0.00 0.00 0.00 64 1015.0
20260507170353 66 140 11.0 0.0 0.00 0.00 0.00 64 1015.0
20260507164854 72 160 11.0 0.0 0.00 0.00 0.00 50 1015.0
20260507163354 72 160 11.0 0.0 0.00 0.00 0.00 50 1015.0
20260507161853 72 160 11.0 0.0 0.00 0.00 0.00 50 1015.0
20260507160353 0 0.0 0.0 0.00 0.00 0.00
20260507154854 73 160 9.0 0.0 0.00 0.00 0.00 44 1015.0
20260507153354 73 160 9.0 0.0 0.00 0.00 0.00 44 1015.0
20260507151854 73 160 9.0 0.0 0.00 0.00 0.00 44 1015.0
20260507150353 73 160 9.0 0.0 0.00 0.00 0.00 44 1015.0
20260507144853 75 170 11.0 0.0 0.00 0.00 0.00 44 1015.0
20260507143355 75 170 11.0 0.0 0.00 0.00 0.00 44 1015.0
20260507141854 75 170 11.0 0.0 0.00 0.00 0.00 44 1015.0
20260507140353 75 170 11.0 0.0 0.00 0.00 0.00 44 1015.0
20260507134854 73 180 11.0 0.0 0.00 0.00 0.00 44 1015.0
20260507133353 73 180 11.0 0.0 0.00 0.00 0.00 44 1015.0
20260507131850 73 180 11.0 0.0 0.00 0.00 0.00 44 1015.0
20260507130353 73 180 11.0 0.0 0.00 0.00 0.00 44 1015.0
20260507124850 73 150 9.0 0.0 0.00 0.00 0.00 41 1016.0
20260507123432 73 150 9.0 0.0 0.00 0.00 0.00 41 1016.0
20260507121853 73 150 9.0 0.0 0.00 0.00 0.00 41 1016.0
20260507120354 73 150 9.0 0.0 0.00 0.00 0.00 41 1016.0
20260507114853 72 180 11.0 0.0 0.00 0.00 0.00 47 1016.0
20260507113420 0 0.0 0.0 0.00 0.00 0.00
20260507111853 72 180 11.0 0.0 0.00 0.00 0.00 47 1016.0
20260507110353 0 0.0 0.0 0.00 0.00 0.00
20260507104853 70 180 11.0 0.0 0.00 0.00 0.00 46 1017.0
20260507103353 70 180 11.0 0.0 0.00 0.00 0.00 46 1017.0
20260507101853 70 180 11.0 0.0 0.00 0.00 0.00 46 1017.0
20260507100354 70 180 11.0 0.0 0.00 0.00 0.00 46 1017.0
20260507094854 0 0.0 0.0 0.00 0.00 0.00
20260507093354 0 0.0 0.0 0.00 0.00 0.00
20260507091855 0 0.0 0.0 0.00 0.00 0.00
20260507090354 0 0.0 0.0 0.00 0.00 0.00
20260507084853 64 140 7.0 0.0 0.00 0.00 0.00 60 1017.0
20260507083354 64 140 7.0 0.0 0.00 0.00 0.00 60 1017.0
20260507081853 64 140 7.0 0.0 0.00 0.00 0.00 60 1017.0
20260507080354 64 140 7.0 0.0 0.00 0.00 0.00 60 1017.0
20260507074854 59 130 7.0 0.0 0.00 0.00 0.00 72 1017.0
20260507073353 59 130 7.0 0.0 0.00 0.00 0.00 72 1017.0
20260507071854 59 130 7.0 0.0 0.00 0.00 0.00 72 1017.0
20260507070353 59 130 7.0 0.0 0.00 0.00 0.00 72 1017.0
20260507064853 55 160 7.0 0.0 0.00 0.00 0.00 77 1017.0
20260507063353 55 160 7.0 0.0 0.00 0.00 0.00 77 1017.0
20260507061903 55 160 7.0 0.0 0.00 0.00 0.00 77 1017.0
20260507060354 55 160 7.0 0.0 0.00 0.00 0.00 77 1017.0
20260507054853 50 160 7.0 0.0 0.00 0.00 0.00 88 1017.0
20260507053401 50 160 7.0 0.0 0.00 0.00 0.00 88 1017.0
20260507051854 50 160 7.0 0.0 0.00 0.00 0.00 88 1017.0
20260507050353 0 0.0 0.0 0.00 0.00 0.00
20260507044847 45 180 5.0 0.0 0.00 0.00 0.00 100 1016.0